Miscellaneous Local Product
Issued by NWS Hastings, NE

Home | Current Version | Previous Version | Text Only | Print | Product List | Glossary On
Versions: 1 2 3 4 5 6 7 8 9 10 11 12 13 14 15 16 17 18 19 20 21 22 23 24 25 26 27 28 29 30 31 32 33 34 35 36 37 38 39 40 41 42 43 44 45 46 47 48 49 50
000
AXUS43 KGID 242102
MISGRI

GID CWA HOURLY WEATHER ROUNDUP
NATIONAL WEATHER SERVICE HASTINGS NE
400 PM CDT THU APR 24 2014

NOTE: "FAIR" INDICATES FEW OR NO CLOUDS BELOW 12,000 FEET WITH NO
SIGNIFICANT WEATHER AND/OR OBSTRUCTIONS TO VISIBILITY.

...SOUTH CENTRAL NEBRASKA...

CITY           SKY/WX    TMP DP  RH WIND       PRES   REMARKS
GRAND ISLAND   SUNNY     69  26  20 NW17G29   29.79F
HASTINGS       MOSUNNY   69  28  21 N21G26    29.80F
KEARNEY        SUNNY     70  25  18 NW18G26   29.81F
ORD            SUNNY     70  17  13 NW17G28   29.77F
YORK           PTSUNNY   66  34  30 N12G17    29.77S
AURORA         MOSUNNY   68  31  24 N16G28    29.78F
LEXINGTON      SUNNY     70  16  12 NW17G26   29.82F
HOLDREGE       SUNNY     69  23  17 N12G18    29.82F
HEBRON         CLOUDY    66  35  32 N10       29.79S

...NEBRASKA PANHANDLE...

CITY           SKY/WX    TMP DP  RH WIND       PRES   REMARKS
CHADRON        SUNNY     66  20  17 W18G24    29.81F
ALLIANCE       MOSUNNY   63  16  16 W21       29.84F
SCOTTSBLUFF    PTSUNNY   66  18  15 W20G26    29.85F
SIDNEY         PTSUNNY   63  13  14 NW10G25   29.88F

...WESTERN AND NORTH CENTRAL NEBRASKA...

CITY           SKY/WX    TMP DP  RH WIND       PRES   REMARKS
VALENTINE      SUNNY     68  18  14 NW17      29.78F
AINSWORTH      SUNNY     68  17  14 NW17G35   29.79F
ONEILL         SUNNY     69  13  11 NW17G33   29.77F
BROKEN BOW     SUNNY     69  14  12 NW22G30   29.80F
IMPERIAL       SUNNY     66  10  11 W9G29     29.86F
NORTH PLATTE   SUNNY     68  22  17 NW15      29.82F
MCCOOK         SUNNY     70  12  10 NW16G25   29.85F

...EASTERN NEBRASKA...

CITY           SKY/WX    TMP DP  RH WIND       PRES   REMARKS
NORFOLK        SUNNY     68  24  19 NW26G35   29.73S
SO SIOUX CITY  MOSUNNY   66  39  37 N16       29.72F
TEKAMAH        CLOUDY    66  43  43 N16       29.73F
COLUMBUS       MOSUNNY   66  37  34 NW22G30   29.75F
ALBION         SUNNY     67  26  20 NW21G29   29.76F
OMAHA EPPLEY   CLOUDY    61  45  55 N18G26    29.73F
OFFUTT AFB     CLOUDY    61  47  60 N17G24    29.73F
MILLARD        CLOUDY    61  44  53 N12G18    29.74F
LINCOLN        PTSUNNY   66  38  35 N18       29.76F
NEBRASKA CITY  CLOUDY    59  47  65 N22G28    29.73R
BEATRICE       CLOUDY    64  40  41 N17       29.77S
FALLS CITY     CLOUDY    59  49  69 NW14G26   29.70S

...NORTHERN KANSAS...

CITY           SKY/WX    TMP DP  RH WIND       PRES   REMARKS
GOODLAND       SUNNY     66  11  11 NW16G24   29.91F
HILL CITY      SUNNY     70  24  17 NW15      29.86F
PHILLIPSBURG   SUNNY     70  28  21 NW13G21   29.83F
SMITH CENTER   SUNNY     66  30  26 NW21      29.82F
BELOIT         MOSUNNY   70  34  26 NW15G26   29.81S
HAYS           SUNNY     70  30  23 NW14G23   29.86F
RUSSELL        MOSUNNY   70  30  22 NW21G32   29.83F
CONCORDIA      PTSUNNY   67  37  33 NW16G24   29.80F
SALINA         CLOUDY    69  40  34 N17G28    29.82S
TOPEKA         CLOUDY    62  50  64 NW14G25   29.74R



USA.gov is the U.S. government's official web portal to all federal, state and local government web resources and services.